Wetterstats.de || Aktuelle Messwerte || Aktuelle Wetterkarten NEU! || Radar / Satellit NEU! || Wetterarchiv || Langzeitwerte NEU! || Klim. Kenntage || Met. Ereignisse || Agrarwerte || Echtzeitwerte

Monatsübersicht für Juni 2020 Diagramm
 
Wetter Information zur Wetteranzeige
Zeitraffer
Tageslänge (hh:mm)
Höchsttemperatur in °C
Uhrzeit
Tiefsttemperatur in °C
Uhrzeit
Luftfeuchte (max., in %)
Uhrzeit
Luftfeuchte (min., in %)
Uhrzeit
Luftdruck (max., in hPa)
Uhrzeit
Luftdruck (min., in hPa)
Uhrzeit
Luftdruck (Ø, in hPa)
Regenrate (max, mm/h)
Uhrzeit
Niederschlag in mm
Verdunstung in mm
Solar in W/m² (Ø)
Solar in W/m² (max.)
UV-Index (max.)
Sonnenscheindauer (hh:mm)
Windrichtung (Ø)
Windstärke (Ø in km/h)
Windstärke (Ø in bft)
Windböe (max., in km/h)
Uhrzeit
Windböe (max., in bft)
Uhrzeit
Taupunkt (max., in °C)
Uhrzeit
Taupunkt (min., in °C)
Uhrzeit
Windchill (min., in °C)
Uhrzeit
Gewitterindex (max.)
Uhrzeit
Waldbrandindex (max.)
Uhrzeit
Graslandfeuerindex (max.)
Uhrzeit
Staubsturm-Index (max.)
Uhrzeit
01
Zeitraffer
16:35
23.6
16:45 Uhr
9.1
05:05 Uhr

86
05:00 Uhr
28
14:30 Uhr
1025.0
08:55 Uhr

1022.0
17:50 Uhr
1023.6
0,000
00:00 Uhr
0,000
4.039
312
795
12:45 Uhr
4.6
12:45 Uhr

09:20:00
6,1
1
32,2
18:40 Uhr

5
9.6
18:20 Uhr
3.2
14:35 Uhr
9.1
05:05 Uhr
2
18:20 Uhr
5.9
00:00 Uhr
5.9
00:00 Uhr
3.2
18:45 Uhr
02
Zeitraffer
16:37
26.8
12:10 Uhr
11.4
05:05 Uhr

71
05:05 Uhr
32
18:20 Uhr
1022.8
00:00 Uhr

1011.4
23:50 Uhr
1017.4
0,000
00:00 Uhr
0,000
3.708
305
855
13:50 Uhr
4.6
13:30 Uhr

08:57:00
2,0
0
22,5
16:40 Uhr

4
10.7
12:00 Uhr
6.1
05:50 Uhr
11.4
05:05 Uhr
3
22:10 Uhr
5.9
00:00 Uhr
5.9
00:00 Uhr
2.0
16:15 Uhr
03
Zeitraffer
16:39
23.9
13:35 Uhr
12.7
04:50 Uhr

80
04:20 Uhr
33
17:35 Uhr
1011.4
00:00 Uhr

1001.8
23:50 Uhr
1006.6
0,000
00:00 Uhr
0,000
3.708
304
782
13:15 Uhr
4.4
13:00 Uhr

09:02:00
2,6
1
24,1
16:35 Uhr

4
10.5
01:10 Uhr
5.5
20:40 Uhr
12.7
04:50 Uhr
2
00:00 Uhr
5.9
00:00 Uhr
5.9
00:00 Uhr
2.2
14:35 Uhr
04
Zeitraffer
16:41
24.4
13:50 Uhr
14.7
05:15 Uhr

93
23:25 Uhr
34
13:55 Uhr
1001.8
00:00 Uhr

992.0
23:50 Uhr
996.0
7,200
23:15 Uhr
4,800
2.972
223
838
14:05 Uhr
3.6
13:45 Uhr

04:05:00
3,2
1
30,6
15:15 Uhr

5
15.7
22:45 Uhr
5.8
00:10 Uhr
14.7
05:15 Uhr
9
22:25 Uhr
5.9
00:00 Uhr
5.9
00:00 Uhr
2.8
11:30 Uhr
05
Zeitraffer
16:43
18.4
18:05 Uhr
12.4
09:10 Uhr

94
00:05 Uhr
45
18:05 Uhr
996.4
11:50 Uhr

992.1
00:00 Uhr
994.5
2,400
05:05 Uhr
1,000
1.143
107
937
13:50 Uhr
4.5
13:25 Uhr

00:21:00
1,1
0
17,7
21:40 Uhr

3
15.5
00:10 Uhr
5.2
19:05 Uhr
11.9
22:40 Uhr
9
00:00 Uhr
3.0
18:35 Uhr
5.9
07:35 Uhr
0.3
18:35 Uhr
06
Zeitraffer
16:44
19.8
12:35 Uhr
10.2
04:35 Uhr

81
00:10 Uhr
37
14:35 Uhr
1005.3
23:55 Uhr

995.2
00:00 Uhr
1001.4
2,400
09:00 Uhr
0,400
2.769
262
953
12:40 Uhr
4.5
12:30 Uhr

05:39:00
1,1
0
24,1
15:25 Uhr

4
11.4
18:30 Uhr
4.1
14:35 Uhr
10.2
04:35 Uhr
2
00:00 Uhr
4.0
15:00 Uhr
5.9
00:00 Uhr
1.8
13:45 Uhr
07
Zeitraffer
16:45
19.9
15:50 Uhr
10.7
05:40 Uhr

86
05:45 Uhr
43
16:05 Uhr
1010.7
23:55 Uhr

1005.3
04:30 Uhr
1007.5
0,000
00:00 Uhr
0,000
1.473
134
846
12:50 Uhr
4.3
12:40 Uhr

00:51:00
0,8
0
14,5
11:30 Uhr

3
11.9
12:10 Uhr
6.8
16:05 Uhr
10.7
05:40 Uhr
3
23:30 Uhr
3.9
16:15 Uhr
5.9
00:00 Uhr
1.9
11:35 Uhr
08
Zeitraffer
16:46
22.6
12:50 Uhr
10.7
04:55 Uhr

81
04:55 Uhr
42
11:50 Uhr
1015.7
23:40 Uhr

1010.6
00:05 Uhr
1013.3
0,000
00:00 Uhr
0,000
2.896
272
925
13:20 Uhr
4.5
12:40 Uhr

06:48:00
0,9
0
12,9
15:30 Uhr

2
10.0
00:00 Uhr
7.3
04:50 Uhr
10.7
04:55 Uhr
2
00:00 Uhr
5.7
14:05 Uhr
5.9
00:00 Uhr
1.6
16:20 Uhr
09
Zeitraffer
16:48
22.6
10:40 Uhr
12.0
05:05 Uhr

82
05:10 Uhr
41
17:15 Uhr
1017.2
09:25 Uhr

1015.5
18:10 Uhr
1016.3
0,000
00:00 Uhr
0,000
2.642
199
828
10:55 Uhr
3.5
10:55 Uhr

05:26:00
3,4
1
22,5
22:45 Uhr

4
11.3
08:50 Uhr
7.2
19:30 Uhr
12.0
05:05 Uhr
2
00:00 Uhr
5.9
11:00 Uhr
5.9
00:00 Uhr
2.5
22:30 Uhr
10
Zeitraffer
16:49
21.2
14:05 Uhr
11.8
04:25 Uhr

85
04:55 Uhr
41
13:50 Uhr
1017.1
00:20 Uhr

1012.4
19:40 Uhr
1014.6
0,000
00:00 Uhr
0,000
2.489
186
919
13:15 Uhr
4.6
13:10 Uhr

03:27:00
4,9
1
22,5
17:05 Uhr

4
13.1
23:35 Uhr
7.2
13:50 Uhr
10.8
06:50 Uhr
5
22:20 Uhr
5.9
12:10 Uhr
5.9
00:00 Uhr
2.6
16:35 Uhr
11
Zeitraffer
16:50
20.4
16:35 Uhr
14.3
03:10 Uhr

96
06:05 Uhr
77
16:45 Uhr
1012.6
00:00 Uhr

1010.3
19:45 Uhr
1011.2
7,200
05:30 Uhr
5,400
0.584
57
163
13:00 Uhr
1.3
13:00 Uhr

00:00:00
2,5
1
19,3
00:50 Uhr

3
18.4
19:20 Uhr
12.7
00:35 Uhr
14.0
01:10 Uhr
10
22:20 Uhr
5.9
00:00 Uhr
5.9
00:00 Uhr
2.1
01:50 Uhr
12
Zeitraffer
16:51
27.1
17:35 Uhr
13.7
05:55 Uhr

98
07:00 Uhr
54
17:35 Uhr
1013.1
08:40 Uhr

1010.0
18:20 Uhr
1011.6
0,000
00:00 Uhr
0,000
2.337
196
733
14:10 Uhr
4.0
11:40 Uhr

02:51:00
4,7
1
22,5
11:25 Uhr

4
18.4
12:40 Uhr
13.2
04:05 Uhr
13.5
04:45 Uhr
12
22:20 Uhr
2.5
17:35 Uhr
5.9
13:55 Uhr
0.3
19:45 Uhr
13
Zeitraffer
16:52
31.2
14:05 Uhr
18.1
04:45 Uhr

96
20:55 Uhr
50
14:05 Uhr
1013.3
19:30 Uhr

1009.6
14:10 Uhr
1011.3
67,200
14:35 Uhr
23,600
2.616
299
818
13:45 Uhr
4.1
13:20 Uhr

04:50:00
4,6
1
32,2
14:40 Uhr

5
21.6
12:25 Uhr
16.5
03:40 Uhr
17.5
18:40 Uhr
13
12:20 Uhr
4.4
14:10 Uhr
5.9
00:00 Uhr
2.6
14:20 Uhr
14
Zeitraffer
16:53
24.9
16:25 Uhr
17.8
00:15 Uhr

96
03:10 Uhr
46
20:15 Uhr
1013.6
23:45 Uhr

1011.1
00:00 Uhr
1012.4
0,000
00:00 Uhr
0,000
1.981
135
904
13:50 Uhr
4.7
13:45 Uhr

00:57:00
4,9
1
24,1
11:55 Uhr

4
18.3
11:05 Uhr
11.7
20:15 Uhr
16.4
01:10 Uhr
12
03:10 Uhr
0.0
00:00 Uhr
0.0
00:00 Uhr
0.0
00:00 Uhr
15
Zeitraffer
16:53
24.6
13:45 Uhr
14.7
04:55 Uhr

82
05:00 Uhr
37
13:50 Uhr
1016.1
23:45 Uhr

1013.4
00:25 Uhr
1014.6
0,000
00:00 Uhr
0,000
3.785
314
899
12:30 Uhr
5.1
12:40 Uhr

08:46:00
3,8
1
22,5
09:15 Uhr

4
13.6
08:45 Uhr
8.5
13:50 Uhr
14.7
03:15 Uhr
6
00:00 Uhr
0.0
00:00 Uhr
0.8
14:00 Uhr
0.0
00:00 Uhr


 
Wetter Information zur Wetteranzeige
Zeitraffer
Tageslänge (hh:mm)
Höchsttemperatur in °C
Uhrzeit
Tiefsttemperatur in °C
Uhrzeit
Luftfeuchte (max., in %)
Uhrzeit
Luftfeuchte (min., in %)
Uhrzeit
Luftdruck (max., in hPa)
Uhrzeit
Luftdruck (min., in hPa)
Uhrzeit
Luftdruck (Ø, in hPa)
Regenrate (max, mm/h)
Uhrzeit
Niederschlag in mm
Verdunstung in mm
Solar in W/m² (Ø)
Solar in W/m² (max.)
UV-Index (max.)
Sonnenscheindauer (hh:mm)
Windrichtung (Ø)
Windstärke (Ø in km/h)
Windstärke (Ø in bft)
Windböe (max., in km/h)
Uhrzeit
Windböe (max., in bft)
Uhrzeit
Taupunkt (max., in °C)
Uhrzeit
Taupunkt (min., in °C)
Uhrzeit
Windchill (min., in °C)
Uhrzeit
Gewitterindex (max.)
Uhrzeit
Waldbrandindex (max.)
Uhrzeit
Graslandfeuerindex (max.)
Uhrzeit
Staubsturm-Index (max.)
Uhrzeit
16
Zeitraffer
16:54
26.6
12:00 Uhr
14.3
05:15 Uhr

84
05:00 Uhr
39
18:55 Uhr
1016.1
00:00 Uhr

1012.3
19:05 Uhr
1014.3
0,000
00:00 Uhr
0,000
3.099
282
895
12:30 Uhr
5.0
12:25 Uhr

08:20:00
0,7
0
16,1
11:55 Uhr

3
14.4
23:45 Uhr
10.5
18:55 Uhr
14.3
05:15 Uhr
8
22:25 Uhr
0.0
00:00 Uhr
0.9
14:00 Uhr
0.0
00:00 Uhr
17
Zeitraffer
16:54
27.9
12:50 Uhr
15.7
04:55 Uhr

86
04:10 Uhr
35
14:50 Uhr
1013.1
00:00 Uhr

1009.5
19:25 Uhr
1011.6
0,000
00:00 Uhr
0,000
3.683
268
877
11:55 Uhr
4.8
12:50 Uhr

07:38:00
3,1
1
22,5
21:35 Uhr

4
15.4
08:30 Uhr
10.2
14:50 Uhr
15.7
04:55 Uhr
8
00:00 Uhr
2.7
14:45 Uhr
4.1
14:15 Uhr
0.6
22:20 Uhr
18
Zeitraffer
16:54
25.3
15:00 Uhr
19.1
05:45 Uhr

73
07:40 Uhr
50
15:30 Uhr
1010.9
22:15 Uhr

1009.1
03:50 Uhr
1009.8
0,000
00:00 Uhr
0,000
2.769
186
911
13:40 Uhr
4.5
13:35 Uhr

01:53:00
4,4
1
20,9
12:55 Uhr

4
16.6
10:50 Uhr
12.5
01:25 Uhr
17.6
08:35 Uhr
8
10:45 Uhr
2.4
16:15 Uhr
3.8
15:25 Uhr
0.3
13:40 Uhr
19
Zeitraffer
16:55
22.6
12:10 Uhr
16.9
04:15 Uhr

86
19:10 Uhr
65
12:10 Uhr
1014.6
23:50 Uhr

1010.7
00:00 Uhr
1012.2
0,000
00:00 Uhr
0,000
1.219
105
853
12:05 Uhr
4.1
12:05 Uhr

00:05:00
0,7
0
14,5
15:25 Uhr

3
16.9
19:10 Uhr
13.3
03:00 Uhr
16.9
04:15 Uhr
10
22:25 Uhr
2.0
13:00 Uhr
3.4
13:00 Uhr
0.0
00:00 Uhr
20
Zeitraffer
16:55
20.3
11:20 Uhr
16.2
23:50 Uhr

94
16:55 Uhr
65
12:10 Uhr
1018.4
22:20 Uhr

1014.2
03:20 Uhr
1016.3
4,800
15:20 Uhr
4,400
0.914
97
490
10:10 Uhr
2.4
11:15 Uhr

00:19:00
0,7
0
11,3
10:30 Uhr

2
16.2
18:00 Uhr
12.2
12:15 Uhr
16.2
23:50 Uhr
10
00:00 Uhr
1.6
10:55 Uhr
3.1
12:10 Uhr
0.0
00:00 Uhr
21
Zeitraffer
16:55
23.2
18:30 Uhr
14.7
03:10 Uhr

95
04:45 Uhr
54
19:30 Uhr
1019.7
23:55 Uhr

1017.6
18:10 Uhr
1018.5
2,400
01:40 Uhr
1,200
1.270
126
802
11:00 Uhr
4.1
14:35 Uhr

00:17:00
0,9
0
14,5
17:00 Uhr

3
16.0
10:55 Uhr
10.9
22:15 Uhr
14.7
03:10 Uhr
7
00:00 Uhr
0.0
00:00 Uhr
0.9
19:25 Uhr
0.0
00:00 Uhr
22
Zeitraffer
16:54
26.8
10:40 Uhr
13.5
05:10 Uhr

87
05:05 Uhr
40
13:25 Uhr
1023.9
23:40 Uhr

1019.2
04:15 Uhr
1021.2
0,000
00:00 Uhr
0,000
3.581
307
837
14:20 Uhr
4.9
12:30 Uhr

08:34:00
1,2
0
17,7
17:30 Uhr

3
14.9
11:25 Uhr
9.2
19:50 Uhr
13.5
05:10 Uhr
6
11:20 Uhr
0.0
00:00 Uhr
2.5
13:35 Uhr
0.0
00:00 Uhr
23
Zeitraffer
16:54
24.7
12:30 Uhr
13.9
04:55 Uhr

78
04:35 Uhr
32
13:20 Uhr
1025.6
08:35 Uhr

1024.0
00:00 Uhr
1024.9
0,000
00:00 Uhr
0,000
3.785
316
805
12:30 Uhr
4.9
12:25 Uhr

09:27:00
1,8
0
20,9
16:20 Uhr

4
12.6
08:10 Uhr
5.7
14:45 Uhr
13.9
04:55 Uhr
4
08:10 Uhr
0.5
12:30 Uhr
3.0
13:00 Uhr
0.0
00:00 Uhr
24
Zeitraffer
16:54
25.3
11:15 Uhr
14.1
05:10 Uhr

81
05:15 Uhr
50
10:20 Uhr
1025.8
01:55 Uhr

1023.7
20:30 Uhr
1025.0
0,000
00:00 Uhr
0,000
2.997
236
834
11:05 Uhr
3.8
11:00 Uhr

06:18:00
3,3
1
24,1
16:05 Uhr

4
15.3
14:55 Uhr
10.5
00:05 Uhr
14.1
05:10 Uhr
9
23:50 Uhr
2.5
11:40 Uhr
4.9
18:00 Uhr
1.2
13:15 Uhr
25
Zeitraffer
16:53
26.8
15:25 Uhr
19.1
05:15 Uhr

80
05:25 Uhr
44
18:40 Uhr
1023.9
00:00 Uhr

1020.1
19:30 Uhr
1021.9
0,000
00:00 Uhr
0,000
2.515
170
865
13:30 Uhr
4.6
13:00 Uhr

02:24:00
4,5
1
25,7
12:05 Uhr

4
18.1
11:40 Uhr
13.2
18:40 Uhr
19.1
05:15 Uhr
10
03:05 Uhr
3.2
17:00 Uhr
5.4
17:30 Uhr
2.0
18:05 Uhr
26
Zeitraffer
16:53
28.6
12:45 Uhr
18.0
05:05 Uhr

85
04:45 Uhr
48
12:35 Uhr
1020.6
00:00 Uhr

1011.8
23:45 Uhr
1016.2
0,000
00:00 Uhr
0,000
3.251
261
855
12:45 Uhr
4.5
12:40 Uhr

07:18:00
3,2
1
33,8
19:05 Uhr

5
19.7
18:00 Uhr
15.4
04:15 Uhr
17.4
05:15 Uhr
11
17:55 Uhr
3.2
13:00 Uhr
5.4
13:00 Uhr
2.0
13:15 Uhr
27
Zeitraffer
16:52
31.2
13:25 Uhr
17.3
04:35 Uhr

90
04:40 Uhr
39
12:45 Uhr
1011.7
00:00 Uhr

1008.3
17:40 Uhr
1010.2
0,000
00:00 Uhr
0,000
3.632
309
803
14:00 Uhr
4.9
12:45 Uhr

08:43:00
0,4
0
14,5
11:05 Uhr

3
17.9
21:00 Uhr
14.7
19:10 Uhr
17.3
04:35 Uhr
12
22:25 Uhr
3.5
14:00 Uhr
5.8
17:05 Uhr
1.0
17:05 Uhr
28
Zeitraffer
16:52
30.2
10:50 Uhr
19.1
23:00 Uhr

90
16:45 Uhr
47
10:50 Uhr
1014.0
21:30 Uhr

1010.1
00:00 Uhr
1012.1
19,200
16:35 Uhr
7,200
2.007
167
731
10:35 Uhr
3.9
11:05 Uhr

03:43:00
0,1
0
9,7
11:15 Uhr

2
21.5
13:40 Uhr
14.3
23:10 Uhr
19.1
23:00 Uhr
13
13:40 Uhr
3.2
11:00 Uhr
5.4
11:10 Uhr
0.7
11:15 Uhr
29
Zeitraffer
16:51
26.4
13:55 Uhr
16.4
06:10 Uhr

83
05:45 Uhr
38
13:55 Uhr
1013.8
01:35 Uhr

1009.2
20:50 Uhr
1011.6
0,000
00:00 Uhr
0,000
2.794
268
888
13:35 Uhr
4.9
13:05 Uhr

05:25:00
0,3
0
12,9
15:15 Uhr

2
15.1
08:00 Uhr
10.0
14:00 Uhr
16.4
06:10 Uhr
8
00:00 Uhr
0.0
00:00 Uhr
1.1
13:55 Uhr
0.0
00:00 Uhr
Stationsstandorte || Wetterblog || Wissenswertes || Downloads || Seitenhistorie || Partner || Impressum / Datenschutz